Regional Weather Roundup
Issued by NWS

Home | Current Version | Previous Version | Graphics & Text | Print | Product List | Glossary On
Versions: 1 2 3 4 5 6 7 8 9 10 11 12 13 14 15 16 17 18 19 20 21 22 23 24 25 26 27 28 29 30 31 32 33 34 35 36 37 38 39 40 41 42 43 44 45 46 47 48 49
000
ASUS45 KTFX 021010
RWRMT
MONTANA REGIONAL WEATHER ROUNDUP
NATIONAL WEATHER SERVICE GREAT FALLS MT
400 AM MDT TUE JUN 02 2015

NOTE: "FAIR" INDICATES FEW OR NO CLOUDS BELOW 12000 FEET WITH NO
SIGNIFICANT WEATHER AND/OR OBSTRUCTIONS TO VISIBILITY.

MTZ001>007-043-021100-
WEST OF THE DIVIDE

CITY           SKY/WX    TMP DP  RH WIND       PRES   REMARKS
KALISPELL      RAIN      56  55  97 S16G23    29.85R FOG
MISSOULA       CLOUDY    52  50  93 S3        29.92R
BUTTE          PTCLDY    43  41  93 E6        29.98S
MULLAN PASS    LGT RAIN  43  43 100 SW5       29.95R VSB 1/2
DEER LODGE       N/A     48  48 100 CALM      29.98S
EUREKA           N/A     55  55 100 CALM      29.84S
HAMILTON         N/A     50  48  93 W3        29.92R
LIBBY            N/A     55  55 100 CALM      29.86F
PLAINS           N/A     56  51  83 W2        29.89S
RONAN            N/A     53  50  90 E2        29.93S
THOMPSON FALLS   N/A     56  55  96 N1        29.94R
$$

MTZ008-052>055-021100-
SOUTHWEST MONTANA

CITY           SKY/WX    TMP DP  RH WIND       PRES   REMARKS
BOZEMAN        CLEAR     44  42  93 CALM      29.93R
DILLON         MOCLDY    49  42  77 W3        29.96R
W YELLOWSTONE  FOG       39  39 100 CALM      30.06S VSB<1/4
$$

MTZ009-010-012-014-046-048-049-054-021100-
EAST SLOPES AND CENTRAL MONTANA

CITY           SKY/WX    TMP DP  RH WIND       PRES   REMARKS
CUT BANK       LGT RAIN  52  51  97 E18G24    29.88F
GREAT FALLS    MOCLDY    51  50  96 CALM      29.85F
MALMSTROM AFB  MOCLDY    53  52  95 E3        29.86S
HELENA         CLOUDY    56  46  69 W13       29.91R
CONRAD           N/A     56  56 100 NE7       29.91F
$$

MTZ011-013-016-021-045-047-050-051-021100-
NORTH CENTRAL MONTANA

CITY           SKY/WX    TMP DP  RH WIND       PRES   REMARKS
HAVRE          LGT RAIN  55  49  80 SE15      29.90S
LEWISTOWN      CLOUDY    55  52  89 E6        29.89S
N BAR RANCH    CLOUDY    54  52  94 CALM      29.92S
CHINOOK          N/A     54  52  94 E3        29.91F
FORT BENTON      N/A     57  54  88 NE13      29.86S
$$

MTZ017>020-022>027-061-062-021100-
NORTHEAST MONTANA

CITY           SKY/WX    TMP DP  RH WIND       PRES   REMARKS
GLASGOW        RAIN      56  50  80 N15       29.86R
JORDAN           N/A     56  54  93 N18       29.81F
SIDNEY         CLOUDY    63  59  88 N12       29.76F
WOLF POINT     CLOUDY    66  45  46 E17       29.79S
MALTA            N/A     57  48  72 CALM      29.87R
PLENTYWOOD       N/A     57  46  67 NE21G29   29.81F
POPLAR           N/A     63  46  55 NE21G30   29.79R
SCOBEY           N/A     56  41  57 NE18      29.85F
$$

MTZ028>42-056>058-021100-
SOUTHCENTRAL AND SOUTHEAST MONTANA

CITY           SKY/WX    TMP DP  RH WIND       PRES   REMARKS
BAKER          CLOUDY    58  56  93 E7        29.79F
BILLINGS       MOCLDY    54  52  93 SW7       29.88S
LIVINGSTON     CLEAR     47  42  83 CALM      29.92S
MILES CITY     CLOUDY    59  32  36 NW12      29.75S
BIG TIMBER       N/A     52  48  87 CALM      29.91F
EKALAKA          N/A     56  52  86 CALM      29.81F
FORSYTH          N/A     59  59 100 W8        29.80R
LAUREL           N/A     52  47  83 CALM      29.89R
ROUNDUP          N/A     58  54  86 CALM      29.80S
$$

REGIONAL REPORTS...DAKOTAS

CITY           SKY/WX    TMP DP  RH WIND       PRES   REMARKS
WILLISTON      CLOUDY    64  57  78 NE8       29.82S
MINOT          CLOUDY    59  57  93 SW7       29.82R
DICKINSON      CLOUDY    58  56  93 E10       29.81S
BEACH          CLOUDY    57  57 100 SE13      29.78F
CROSBY         FAIR      54  54 100 NE6       29.85F
WATFORD CITY   LGT RAIN  61  61 100 N6        29.77
BISMARCK       CLOUDY    62  58  86 NW12      29.80F
GRAND FORKS    LGT RAIN  57  54  89 SW13      29.86R
FARGO          CLOUDY    63  47  55 S21G26    29.85F
BUFFALO SD       N/A     60  55  83 NE20      29.76R
RAPID CITY     MOCLDY    57  53  86 SE13      29.80S
$$

REGIONAL REPORTS...WYOMING/IDAHO/WASHINGTON

CITY           SKY/WX    TMP DP  RH WIND       PRES   REMARKS
GILLETTE       PTCLDY    53  51  93 W9        29.88R
SHERIDAN       MOCLDY    51  49  92 CALM      29.87S
BUFFALO WY     PTCLDY    51  48  89 S6        29.92F
CODY           PTCLDY    48  43  81 SE6       29.93F
IDAHO FALLS    CLEAR     44  42  93 N9        29.97R
SALMON         CLOUDY    48  45  87 NE3       29.92F
BOISE          MOCLDY    60  49  66 N7        29.94R
SPOKANE        CLOUDY    56  49  77 S13       29.85R
$$

REGIONAL REPORTS...ALBERTA

CITY           SKY/WX    TMP DP  RH WIND       PRES   REMARKS
EDMONTON       CLEAR     43  39  87 NE5       30.02F
CALGARY        PTCLDY    50  45  81 N10       29.96S
LETHBRIDGE     LGT RAIN  57  50  77 SE10G17   29.88S
MEDICINE HAT   CLOUDY    61  39  44 VRB2      29.88R
$$

REGIONAL REPORTS...SASKATCHEWAN

CITY           SKY/WX    TMP DP  RH WIND       PRES   REMARKS
SWIFT CURRENT  CLEAR     48  43  81 E8        29.92F
REGINA         MOCLDY    52  45  76 NE10      29.93R
SASKATOON      PTCLDY    46  41  81 NE9       30.03R
$$



USA.gov is the U.S. government's official web portal to all federal, state and local government web resources and services.